This is the latest recevied weather packets stored in our database for station/object N5LSN. If no packets are shown the sender has not sent any weather packets the latest 10 day(s).
| Time | Temp. | Humidity | Pressure | Rain* | Wind** | Luminosity | Snow |
|---|---|---|---|---|---|---|---|
| 1777854250 | 23.89° C | 50% | 1015.5 hPa | 0 mm | - | 26 W/m² | - |
| 1777853947 | 24.44° C | 49% | 1015.6 hPa | 0 mm | - | 30 W/m² | - |
| 1777853645 | 24.44° C | 49% | 1015.5 hPa | 0 mm | - | 27 W/m² | - |
| 1777853341 | 24.44° C | 48% | 1015.5 hPa | 0 mm | - | 39 W/m² | - |
| 1777853038 | 25° C | 49% | 1015.4 hPa | 0 mm | - | 49 W/m² | - |
| 1777852736 | 25° C | 47% | 1015.6 hPa | 0 mm | - | 58 W/m² | - |
| 1777852433 | 25.56° C | 46% | 1015.5 hPa | 0 mm | - | 68 W/m² | - |
| 1777852130 | 25° C | 47% | 1015.5 hPa | 0 mm | - | 72 W/m² | - |
| 1777851828 | 25° C | 47% | 1015.6 hPa | 0 mm | - | 91 W/m² | - |
| 1777851526 | 25° C | 46% | 1015.7 hPa | 0 mm | - | 63 W/m² | - |
| 1777851222 | 25° C | 45% | 1015.6 hPa | 0 mm | - | 102 W/m² | - |
| 1777850918 | 25° C | 46% | 1015.5 hPa | 0 mm | - | 52 W/m² | - |
| 1777850615 | 25° C | 46% | 1015.6 hPa | 0 mm | - | 54 W/m² | - |
| 1777850307 | 25° C | 46% | 1015.8 hPa | 0 mm | - | 72 W/m² | - |
| 1777850004 | 25.56° C | 45% | 1015.5 hPa | 0 mm | - | 118 W/m² | - |
| 1777849700 | 25.56° C | 45% | 1015.4 hPa | 0 mm | - | 147 W/m² | - |
| 1777849397 | 25.56° C | 45% | 1015.5 hPa | 0 mm | - | 58 W/m² | - |
| 1777849094 | 25.56° C | 43% | 1015.4 hPa | 0 mm | - | 57 W/m² | - |
| 1777848790 | 25.56° C | 44% | 1015.4 hPa | 0 mm | - | 60 W/m² | - |
| 1777848487 | 25.56° C | 42% | 1015.5 hPa | 0 mm | - | 192 W/m² | - |
| 1777848184 | 26.11° C | 42% | 1015.6 hPa | 0 mm | - | 166 W/m² | - |
| 1777847882 | 25.56° C | 42% | 1015.7 hPa | 0 mm | - | 248 W/m² | - |
| 1777847579 | 26.67° C | 42% | 1015.6 hPa | 0 mm | - | 282 W/m² | - |
| 1777847275 | 26.11° C | 44% | 1015.7 hPa | 0 mm | - | 267 W/m² | - |
| 1777846973 | 26.11° C | 43% | 1015.6 hPa | 0 mm | - | 179 W/m² | - |
* Rain latest hour (hover to see other rain measurements)
** Current wind speed in m/s (hover to see current wind gust speed)